Regional Weather Roundup
Issued by NWS

Home | Current Version | Previous Version | Text Only | Print | Product List | Glossary Off
Versions: 1 2 3 4 5 6 7 8 9 10 11 12 13 14 15 16 17 18 19 20 21 22 23 24 25 26 27 28 29 30 31 32 33 34 35 36 37 38 39 40 41 42 43 44 45 46 47 48 49 50

000
ASUS43 KMPX 221410
RWRMN
WEATHER ROUNDUP FOR MINNESOTA
NATIONAL WEATHER SERVICE TWIN CITIES/CHANHASSEN MN
900 AM CDT FRI AUG 22 2014


NOTE: "FAIR" INDICATES FEW OR NO CLOUDS BELOW 12,000 FEET WITH NO
SIGNIFICANT WEATHER AND/OR OBSTRUCTIONS TO VISIBILITY. N/A MEANS
CURRENT SKY AND/OR WEATHER CONDITIONS ARE NOT AVAILABLE.

MNZ060>063-068>070-221500-
   Twin Cities Metro

CITY           SKY/WX    TMP DP  RH WIND       PRES   REMARKS
TWIN CITIES    CLOUDY    72  68  87 N8        29.94R
ST PAUL        CLOUDY    70  68  93 NW9       29.94R
CRYSTAL        CLOUDY    69  66  90 NW6       29.93R FOG
BLAINE         FOG       68  68 100 NW7       29.94R VSB 3/4
LAKEVILLE      CLOUDY    72  68  88 NE3       29.94R
EDEN PRAIRIE   CLOUDY    72  68  87 N5        29.93R
SOUTH ST PAUL  CLOUDY    72  68  88 NW3       29.93R
LAKE ELMO      CLOUDY    68  68 100 NW3       29.94R FOG
$$
MNZ001>005-007-008-013>017-022>024-027-028-221500-
   Northwest Minnesota

CITY           SKY/WX    TMP DP  RH WIND       PRES   REMARKS
BEMIDJI        CLOUDY    67  65  92 CALM      29.98S
HALLOCK        CLOUDY    66  64  94 N9        29.98S FOG
ROSEAU         CLOUDY    68  63  83 N5        29.98S
WARROAD        CLOUDY    68  64  88 E5        29.98S
THIEF RVR FALL CLOUDY    70  66  88 CALM      29.97R
CROOKSTON      CLOUDY    66  66 100 N9        29.97S FOG
FOSSTON        RAIN      70  66  88 S3        29.97S
DETROIT LAKES  CLOUDY    70  68  94 CALM      29.99S
MOORHEAD       CLOUDY    70  70 100 N5        29.97R FOG
PARK RAPIDS    CLOUDY    70  66  87 CALM      29.97S
MAHNOMEN       CLOUDY    68  68  99 W5        29.97S FOG
$$
MNZ006-009>011-018-025>026-221500-
   North Central Minnesota

CITY           SKY/WX    TMP DP  RH WIND       PRES   REMARKS
BAUDETTE       CLOUDY    66  62  87 E7        29.98S
FLAG ISLAND    CLOUDY    66  64  94 CALM      29.98R
INTL FALLS     CLOUDY    66  62  87 CALM      29.99S
WASKISH        CLOUDY    66  64  94 CALM      29.97F
BIG FORK       PTSUNNY   66  63  88 CALM      29.99R
LONGVILLE      CLOUDY    66  64  94 CALM      29.97S FOG
GRAND RAPIDS   CLOUDY    64  61  88 CALM      29.98S
CRANE LAKE     CLOUDY    63  61  94 CALM      30.00S
ORR            PTSUNNY   66  61  82 CALM      29.96S
COOK           CLOUDY    66  63  88 CALM      29.99R
WALKER         CLOUDY    67  65  92 NE3       29.98S
$$
MNZ012-019>021-037-221500-
   Northeast Minnesota

CITY           SKY/WX    TMP DP  RH WIND       PRES   REMARKS
DULUTH         FOG       64  61  90 E6        29.96S VSB 1/2
ELY            CLOUDY    63  61  94 CALM      29.99R FOG
HIBBING        CLOUDY    67  62  84 E3        29.98R
EVELETH        CLOUDY    63  61  94 CALM      29.99S
DULUTH HARBOR  DRIZZLE   63  61  94 NE15      29.97S
TWO HARBORS    CLOUDY    61  55  82 NE7       29.96S HAZE
SILVER BAY     CLOUDY    61  61 100 NE7       29.96S FOG
GRAND MARAIS     N/A     61  59  93 E7        29.97R
G MARAIS ARPRT FOG       61  57  88 CALM      30.01R VSB 3/4
$$
MNZ029>031-032-039>041-046>048-054>057-064-221500-
   West Central Minnesota

CITY           SKY/WX    TMP DP  RH WIND       PRES   REMARKS
FERGUS FALLS   PTSUNNY   70  70 100 CALM      29.96S
WHEATON        FOG       66  66 100 CALM      29.98S VSB 1/4
MORRIS         CLOUDY    72  72 100 CALM      29.96R FOG
ALEXANDRIA     PTSUNNY   73  68  84 CALM      29.98R
ELBOW LAKE     PTSUNNY   72  69  92 CALM      29.96S
WADENA         CLOUDY    66  66 100 NE3       29.97S
GLENWOOD       PTSUNNY   70  70 100 CALM      29.98R
APPLETON       FOG       72  70  94 N5        29.95F VSB 1
BENSON         CLOUDY    72  70  94 NE3       29.96S FOG
ORTONVILLE       N/A    N/A N/A N/A MISG      29.97R
MADISON        DRZL/FOG  72  70  94 CALM      29.95F VSB<1/4
WILLMAR        CLOUDY    72  68  88 N6        29.97R FOG
$$
MNZ033>034-036-042>043-049>051-058-059-221500-
   Central Minnesota

CITY           SKY/WX    TMP DP  RH WIND       PRES   REMARKS
ST CLOUD       CLOUDY    70  67  90 N7        29.94S
SAUK CENTRE    PTSUNNY   70  67  90 CALM      29.97R
PAYNESVILLE    PTSUNNY   68  67  96 NW6       29.96R FOG
AITKIN         CLOUDY    66  61  82 N3        29.96R HAZE
PINE RIVER     CLOUDY    66  66 100 NE3       30.00S FOG
BRAINERD       CLOUDY    65  64  97 NE7       29.97S
STAPLES        CLOUDY    66  64  94 N3        29.97S
LONG PRAIRIE   PTSUNNY   68  66  94 N3        29.97R
LITTLE FALLS   CLOUDY    64  63  94 CALM      29.96S FOG
LITCHFIELD     MOSUNNY   73  72  94 N5        29.95S
BUFFALO        CLOUDY    69  67  90 N8        29.95S FOG
MAPLE LAKE     CLOUDY    70  70  98 N6        29.95S
$$
MNZ037-044-045-052-053-221500-
   East Central Minnesota

CITY           SKY/WX    TMP DP  RH WIND       PRES   REMARKS
PRINCETON      CLOUDY    68  66  94 N7        29.95R FOG
MORA           CLOUDY    63  63 100 CALM      29.97R FOG
CAMBRIDGE      CLOUDY    66  59  77 N3        29.94R HAZE
RUSH CITY      CLOUDY    64  63  97 CALM      29.95R
MOOSE LAKE     CLOUDY    61  59  94 NE5       29.95R FOG
HINCKLEY       CLOUDY    63  63 100 N6        29.95R FOG
CLOQUET        FOG       63  61  94 SE3       29.96S VSB 1/4
MCGREGOR       CLOUDY    63  63 100 N5        29.97R
$$
MNZ071>073-080-081-089-090-097-098-221500-
   Southwest Minnesota

CITY           SKY/WX    TMP DP  RH WIND       PRES   REMARKS
MONTEVIDEO     PTSUNNY   75  75 100 CALM      29.96R FOG
GRANITE FALLS  MOSUNNY   72  72 100 NW7       29.98R FOG
CANBY          MOSUNNY   72  69  90 N5        29.98S
MARSHALL       CLOUDY    68  64  88 CALM      29.97R VSB<1/4
REDWOOD FALLS  CLOUDY    73  71  93 N5        29.95R FOG
OLIVIA         PTSUNNY   72  70  94 N5        29.95R FOG
PIPESTONE      SUNNY     73  70  88 NE9       29.98R
WINDOM         CLOUDY    72  70  94 NE6       29.97R FOG
WORTHINGTON    CLOUDY    72  14  11 NE10      29.98R
JACKSON        FOG       72  70  94 NE7       29.97R VSB 1/4
TRACY          CLOUDY    71  70  98 CALM      29.97R FOG
SLAYTON        FOG       69  69  99 CALM      29.99R VSB 1/4
$$
MNZ065>067-074>077-082>085-091>093-221500-
   South Central Minnesota

CITY           SKY/WX    TMP DP  RH WIND       PRES   REMARKS
MANKATO        PTSUNNY   72  66  83 NE7       29.93S
NEW ULM        SUNNY     73  73 100 NE5       29.94S FOG
ST JAMES       CLOUDY    73  72  94 CALM      29.95S FOG
FAIRMONT       CLOUDY    70  64  83 N7        29.95R VSB 3/4
GLENCOE        CLOUDY    72  69  92 N5        29.94R
FARIBAULT      CLOUDY    75  66  73 CALM      29.94S HAZE
OWATONNA       CLOUDY    73  70  88 N6        29.94S FOG
WASECA         CLOUDY    72  68  88 N7        29.96S FOG
ALBERT LEA     CLOUDY    72  72 100 N8        29.94R FOG
$$
MNZ078>079-086>088-094>096-221500-
   Southeast Minnesota

CITY           SKY/WX    TMP DP  RH WIND       PRES   REMARKS
ROCHESTER      CLOUDY    73  69  87 N10       29.94S FOG
RED WING       CLOUDY    75  70  83 W5        29.91R
STANTON        CLOUDY    73  69  87 N3        29.92S FOG
DODGE CENTER   CLOUDY    72  70  94 N8        29.94S FOG
WINONA         CLOUDY    73  72  94 CALM      29.92R FOG
AUSTIN         PTSUNNY   73  73 100 N6        29.93R FOG
PRESTON        FOG       71  71 100 NE7       29.94S VSB 1/2
$$
ABBREVIATIONS USED IN REMARKS
   TC - TEMPERATURES IN CELSIUS
  WCI - WIND CHILL INDEX
   HX - HEAT INDEX
  VSB - VISIBILITY
$$


USA.gov is the U.S. government's official web portal to all federal, state and local government web resources and services.